EW4729 Weather Reports


time (UTC)temp
C
wind
direction
speed
KPH
gust
KPH
rain 1hr
cm
rain 24hr
cm
rain mn
cm
humidity
%
barometer
mb
20260505224053 28 196 11.3 25.7 0.00 0.00 0.00 77 1006.5
20260505223554 28 182 11.3 24.1 0.00 0.00 0.00 77 1006.6
20260505223053 28 194 12.9 32.2 0.00 0.00 0.00 77 1006.6
20260505222553 28 192 12.9 32.2 0.00 0.00 0.00 77 1006.6
20260505222053 28 195 16.1 32.2 0.00 0.00 0.00 77 1006.6
20260505221557 28 146 12.9 24.1 0.00 0.00 0.00 77 1006.6
20260505221051 28 172 16.1 29.0 0.00 0.00 0.00 76 1006.6
20260505220552 28 193 14.5 29.0 0.00 0.00 0.00 75 1006.6
20260505220105 28 215 14.5 25.7 0.00 0.00 0.00 75 1006.8
20260505215552 29 199 12.9 25.7 0.00 0.00 0.00 75 1006.8
20260505215052 29 195 12.9 37.0 0.00 0.00 0.00 75 1006.8
20260505214604 29 206 14.5 37.0 0.00 0.00 0.00 75 1006.7
20260505214052 29 184 12.9 30.6 0.00 0.00 0.00 75 1006.7
20260505213555 29 170 11.3 30.6 0.00 0.00 0.00 76 1006.9
20260505213128 29 184 16.1 30.6 0.00 0.00 0.00 75 1007.0
20260505212552 29 183 12.9 29.0 0.00 0.00 0.00 76 1007.2
20260505212052 29 174 17.7 33.8 0.00 0.00 0.00 75 1007.2
20260505211601 29 209 16.1 33.8 0.00 0.00 0.00 75 1007.2
20260505211055 29 196 19.3 29.0 0.00 0.00 0.00 75 1007.4
20260505210552 29 212 14.5 32.2 0.00 0.00 0.00 75 1007.4
20260505210054 29 173 17.7 32.2 0.00 0.00 0.00 76 1007.4
20260505205556 29 188 12.9 30.6 0.00 0.00 0.00 75 1007.5
20260505205053 29 189 12.9 30.6 0.00 0.00 0.00 74 1007.7
20260505204600 29 150 17.7 30.6 0.00 0.00 0.00 74 1007.7
20260505204052 29 176 12.9 27.4 0.00 0.00 0.00 74 1007.9
20260505203553 30 188 12.9 37.0 0.00 0.00 0.00 74 1008.0
20260505203058 30 209 12.9 37.0 0.00 0.00 0.00 75 1008.0
20260505202551 30 178 12.9 30.6 0.00 0.00 0.00 74 1008.1
20260505202053 30 192 14.5 30.6 0.00 0.00 0.00 75 1008.1
20260505201557 29 223 16.1 27.4 0.00 0.00 0.00 75 1008.1
20260505201052 29 204 11.3 29.0 0.00 0.00 0.00 75 1008.2
20260505200552 29 162 14.5 29.0 0.00 0.00 0.00 75 1008.2
20260505200054 29 182 14.5 27.4 0.00 0.00 0.00 76 1008.2
20260505195554 28 188 11.3 22.5 0.00 0.00 0.00 76 1008.3
20260505195053 28 168 11.3 27.4 0.00 0.00 0.00 76 1008.5
20260505194556 28 194 11.3 27.4 0.00 0.00 0.00 76 1008.5
20260505194053 28 215 14.5 25.7 0.00 0.00 0.00 75 1008.7
20260505193552 29 211 9.7 25.7 0.00 0.00 0.00 76 1008.6
20260505193058 29 199 12.9 29.0 0.00 0.00 0.00 76 1008.6
20260505192553 28 204 14.5 29.0 0.00 0.00 0.00 77 1008.7
20260505192052 28 219 14.5 27.4 0.00 0.00 0.00 77 1008.9
20260505191559 28 191 14.5 27.4 0.00 0.00 0.00 77 1008.8
20260505191052 28 208 17.7 25.7 0.00 0.00 0.00 77 1008.9
20260505190552 28 168 16.1 25.7 0.00 0.00 0.00 76 1009.0
20260505190057 28 198 12.9 27.4 0.00 0.00 0.00 77 1009.0
20260505185552 28 194 12.9 27.4 0.00 0.00 0.00 77 1008.9
20260505185052 28 206 14.5 25.7 0.00 0.00 0.00 77 1008.9
20260505184602 28 219 17.7 25.7 0.00 0.00 0.00 76 1009.0
20260505184054 28 203 12.9 27.4 0.00 0.00 0.00 78 1009.0
20260505183552 28 206 17.7 27.4 0.00 0.00 0.00 79 1009.1
20260505183059 27 212 14.5 24.1 0.00 0.00 0.00 79 1009.1
20260505182552 27 211 12.9 22.5 0.00 0.00 0.00 80 1009.1
20260505182056 27 227 12.9 24.1 0.00 0.00 0.00 80 1009.2
20260505181559 27 204 9.7 24.1 0.00 0.00 0.00 81 1009.3
20260505181056 27 213 19.3 25.7 0.00 0.00 0.00 80 1009.2
20260505180555 27 207 14.5 25.7 0.00 0.00 0.00 80 1009.2
20260505175552 27 200 12.9 20.9 0.00 0.00 0.00 80 1009.4
20260505175056 27 221 12.9 20.9 0.00 0.00 0.00 81 1009.3
20260505174610 27 159 8.0 24.1 0.00 0.00 0.00 81 1009.3
20260505174053 27 202 12.9 25.7 0.00 0.00 0.00 80 1009.5
20260505173553 27 208 16.1 25.7 0.00 0.00 0.00 81 1009.5
20260505173100 27 212 16.1 29.0 0.00 0.00 0.00 80 1009.6
20260505172554 27 207 17.7 29.0 0.00 0.00 0.00 80 1009.6
20260505172052 27 217 19.3 29.0 0.00 0.00 0.00 81 1009.6
20260505171555 27 174 16.1 27.4 0.00 0.00 0.00 81 1009.6
20260505171052 27 196 11.3 30.6 0.00 0.00 0.00 82 1009.6
20260505170551 27 211 16.1 30.6 0.00 0.00 0.00 82 1009.6
20260505170136 26 211 19.3 29.0 0.00 0.00 0.00 82 1009.7
20260505165553 26 221 14.5 25.7 0.00 0.00 0.00 82 1009.7
20260505165053 26 209 12.9 27.4 0.00 0.00 0.00 82 1009.7
20260505164552 26 155 16.1 33.8 0.00 0.00 0.00 82 1009.7
20260505164055 26 210 17.7 33.8 0.00 0.00 0.00 81 1009.7
20260505163551 26 202 17.7 32.2 0.00 0.00 0.00 82 1009.6
20260505163055 26 218 17.7 32.2 0.00 0.00 0.00 82 1009.7
20260505162552 26 212 19.3 29.0 0.00 0.00 0.00 82 1009.7
20260505162051 26 222 17.7 30.6 0.00 0.00 0.00 83 1009.6
20260505161604 26 205 17.7 30.6 0.00 0.00 0.00 83 1009.7
20260505161052 26 203 19.3 30.6 0.00 0.00 0.00 83 1009.7
20260505160554 26 230 14.5 30.6 0.00 0.00 0.00 84 1009.7
20260505153100 25 223 16.1 24.1 0.00 0.00 0.00 88 1009.7
20260505152551 25 205 12.9 22.5 0.00 0.00 0.00 88 1009.7
20260505152051 25 213 12.9 19.3 0.00 0.00 0.00 89 1009.6
20260505151558 24 171 11.3 27.4 0.00 0.00 0.00 89 1009.5
20260505151052 24 220 11.3 27.4 0.00 0.00 0.00 89 1009.5
20260505150554 24 214 14.5 25.7 0.00 0.00 0.00 89 1009.5
20260505140552 23 219 14.5 22.5 0.00 0.00 0.00 91 1009.2
20260505124554 22 180 14.5 24.1 0.00 0.00 0.00 93 1009.0
20260505124052 22 202 12.9 20.9 0.00 0.00 0.00 93 1008.9
20260505123551 22 193 11.3 19.3 0.00 0.00 0.00 93 1008.9
20260505123112 22 182 9.7 16.1 0.00 0.00 0.00 93 1008.9
20260505122552 22 188 8.0 16.1 0.00 0.00 0.00 93 1008.9
20260505122052 22 193 8.0 19.3 0.00 0.00 0.00 93 1009.0
20260505121556 22 202 8.0 19.3 0.00 0.00 0.00 93 1009.0
20260505121052 22 187 11.3 19.3 0.00 0.00 0.00 93 1008.8
20260505120552 22 186 8.0 17.7 0.00 0.00 0.00 93 1008.6
20260505120055 22 200 9.7 17.7 0.00 0.00 0.00 93 1008.7
20260505115553 22 188 11.3 17.7 0.00 0.00 0.00 93 1008.6
20260505115052 21 198 8.0 17.7 0.00 0.00 0.00 93 1008.7
20260505114612 21 186 8.0 14.5 0.00 0.00 0.00 93 1008.6
20260505114052 21 207 8.0 16.1 0.00 0.00 0.00 93 1008.5
20260505113555 21 205 8.0 16.1 0.00 0.00 0.00 93 1008.3
20260505113053 21 202 6.4 12.9 0.00 0.00 0.00 93 1008.4
20260505112556 21 195 6.4 16.1 0.00 0.00 0.00 93 1008.3
20260505112052 21 193 8.0 17.7 0.00 0.00 0.00 93 1008.4
20260505111605 21 202 9.7 17.7 0.00 0.00 0.00 93 1008.3
20260505111053 21 217 9.7 16.1 0.00 0.00 0.00 93 1008.3
20260505110552 21 190 8.0 16.1 0.00 0.00 0.00 93 1008.5
20260505102052 21 198 6.4 17.7 0.00 0.00 0.00 93 1008.3
20260505101554 21 200 8.0 17.7 0.00 0.00 0.00 93 1008.6
20260505101052 21 182 8.0 16.1 0.00 0.00 0.00 93 1008.7
20260505100552 21 199 8.0 14.5 0.00 0.00 0.00 93 1008.7
20260505100055 21 177 6.4 14.5 0.00 0.00 0.00 93 1008.8
20260505095552 21 188 8.0 14.5 0.00 0.00 0.00 92 1008.6
20260505095053 21 191 6.4 16.1 0.00 0.00 0.00 92 1008.6
20260505094556 21 195 9.7 17.7 0.00 0.00 0.00 92 1008.6
20260505094054 21 189 8.0 17.7 0.00 0.00 0.00 92 1008.5
20260505093551 21 187 9.7 14.5 0.00 0.00 0.00 92 1008.6
20260505093053 21 189 6.4 12.9 0.00 0.00 0.00 92 1008.6
20260505092550 21 182 6.4 11.3 0.00 0.00 0.00 92 1008.9
20260505092051 21 194 6.4 11.3 0.00 0.00 0.00 92 1009.0
20260505091600 21 192 6.4 11.3 0.00 0.00 0.00 92 1008.9
20260505091051 21 176 4.8 9.7 0.00 0.00 0.00 92 1008.9
20260505090552 21 189 3.2 9.7 0.00 0.00 0.00 92 1008.9
20260505090059 21 190 3.2 9.7 0.00 0.00 0.00 91 1008.9
20260505085552 21 178 4.8 9.7 0.00 0.00 0.00 91 1008.8
20260505085053 21 188 4.8 9.7 0.00 0.00 0.00 91 1008.9
20260505084553 21 194 4.8 11.3 0.00 0.00 0.00 91 1009.0
20260505084052 21 193 6.4 11.3 0.00 0.00 0.00 91 1009.0
20260505083551 21 182 6.4 11.3 0.00 0.00 0.00 91 1009.1
20260505083105 21 185 4.8 11.3 0.00 0.00 0.00 91 1009.1
20260505082555 21 190 4.8 14.5 0.00 0.00 0.00 91 1009.2
20260505082054 21 195 6.4 14.5 0.00 0.00 0.00 91 1009.3
20260505081557 21 196 8.0 16.1 0.00 0.00 0.00 91 1009.3
20260505081054 21 194 6.4 16.1 0.00 0.00 0.00 91 1009.4
20260505080553 21 203 6.4 17.7 0.00 0.00 0.00 91 1009.4
20260505080054 21 190 8.0 17.7 0.00 0.00 0.00 91 1009.6
20260505075552 21 183 9.7 16.1 0.00 0.00 0.00 91 1009.5
20260505075053 21 187 9.7 16.1 0.00 0.00 0.00 90 1009.6
20260505074554 21 196 9.7 14.5 0.00 0.00 0.00 90 1009.6
20260505074052 21 202 8.0 16.1 0.00 0.00 0.00 90 1009.7
20260505073556 21 184 6.4 16.1 0.00 0.00 0.00 90 1009.8
20260505073100 21 190 8.0 16.1 0.00 0.00 0.00 90 1009.7
20260505072551 21 206 9.7 16.1 0.00 0.00 0.00 90 1009.7
20260505072052 21 209 9.7 17.7 0.00 0.00 0.00 90 1009.7
20260505071553 21 200 11.3 19.3 0.00 0.00 0.00 90 1009.9
20260505071053 21 183 8.0 19.3 0.00 0.00 0.00 90 1009.9
20260505070553 21 182 8.0 24.1 0.00 0.00 0.00 90 1010.0
20260505070055 21 168 9.7 24.1 0.00 0.00 0.00 90 1009.9
20260505065552 21 193 11.3 24.1 0.00 0.00 0.00 90 1009.9
20260505065055 21 203 11.3 22.5 0.00 0.00 0.00 90 1009.8
20260505064602 21 171 12.9 20.9 0.00 0.00 0.00 90 1009.7
20260505064052 21 185 12.9 20.9 0.00 0.00 0.00 89 1009.9
20260505063553 21 180 11.3 22.5 0.00 0.00 0.00 89 1009.9
20260505063055 21 203 11.3 22.5 0.00 0.00 0.00 89 1010.0
20260505062552 21 177 11.3 25.7 0.00 0.00 0.00 89 1010.1
20260505062054 21 194 12.9 25.7 0.00 0.00 0.00 89 1010.1
20260505061553 21 171 11.3 24.1 0.00 0.00 0.00 89 1010.1
20260505061051 21 173 11.3 24.1 0.00 0.00 0.00 89 1010.1
20260505060551 21 186 11.3 20.9 0.00 0.00 0.00 88 1010.2
20260505060104 21 214 8.0 17.7 0.00 0.00 0.00 88 1010.1
20260505055552 21 173 9.7 17.7 0.00 0.00 0.00 88 1010.0
20260505055056 21 175 9.7 17.7 0.00 0.00 0.00 88 1010.1
20260505054604 21 176 8.0 22.5 0.00 0.00 0.00 88 1010.4
20260505054052 21 202 9.7 22.5 0.00 0.00 0.00 88 1010.5
20260505053554 21 199 11.3 22.5 0.00 0.00 0.00 88 1010.5
20260505053112 21 191 9.7 20.9 0.00 0.00 0.00 87 1010.4
20260505052551 21 192 9.7 17.7 0.00 0.00 0.00 87 1010.6
20260505052051 21 185 8.0 17.7 0.00 0.00 0.00 87 1010.6
20260505051555 21 200 8.0 17.7 0.00 0.00 0.00 87 1010.6
20260505051054 21 179 8.0 19.3 0.00 0.00 0.00 87 1010.7
20260505050554 21 182 9.7 19.3 0.00 0.00 0.00 86 1010.7
20260505041614 22 216 9.7 20.9 0.00 0.00 0.00 84 1011.1
20260505041051 22 178 6.4 16.1 0.00 0.00 0.00 84 1011.1
20260505040551 22 182 9.7 19.3 0.00 0.00 0.00 84 1011.0
20260505040057 22 184 9.7 19.3 0.00 0.00 0.00 84 1011.0
20260505035554 22 158 8.0 17.7 0.00 0.00 0.00 83 1011.0
20260505035057 22 195 9.7 24.1 0.00 0.00 0.00 83 1011.1
20260505034601 22 173 11.3 24.1 0.00 0.00 0.00 83 1011.0
20260505034052 22 188 9.7 19.3 0.00 0.00 0.00 83 1011.1
20260505033552 22 185 9.7 22.5 0.00 0.00 0.00 83 1011.1
20260505033102 22 193 11.3 22.5 0.00 0.00 0.00 82 1011.0
20260505032554 22 188 9.7 19.3 0.00 0.00 0.00 82 1010.9
20260505032051 22 159 9.7 27.4 0.00 0.00 0.00 82 1011.1
20260505031607 22 193 9.7 27.4 0.00 0.00 0.00 82 1011.1
20260505031101 22 199 8.0 25.7 0.00 0.00 0.00 82 1011.1
20260505030551 22 175 8.0 25.7 0.00 0.00 0.00 82 1011.0
20260505030052 22 144 9.7 22.5 0.00 0.00 0.00 82 1011.0
20260505025554 22 202 9.7 22.5 0.00 0.00 0.00 82 1011.0
20260505025054 22 183 11.3 22.5 0.00 0.00 0.00 82 1010.9
20260505024555 22 175 8.0 22.5 0.00 0.00 0.00 82 1010.9
20260505024053 22 184 11.3 22.5 0.00 0.00 0.00 82 1010.8
20260505023552 22 159 8.0 19.3 0.00 0.00 0.00 82 1010.8
20260505023102 22 198 9.7 19.3 0.00 0.00 0.00 81 1010.7
20260505022551 22 146 8.0 20.9 0.00 0.00 0.00 81 1010.7
20260505022054 22 179 9.7 20.9 0.00 0.00 0.00 81 1010.8
20260505021557 22 180 9.7 19.3 0.00 0.00 0.00 81 1010.6
20260505021054 22 196 8.0 19.3 0.00 0.00 0.00 81 1010.7
20260505020554 23 171 8.0 22.5 0.00 0.00 0.00 81 1010.7
20260505020055 23 159 9.7 27.4 0.00 0.00 0.00 80 1010.5
20260505015557 23 208 12.9 27.4 0.00 0.00 0.00 80 1010.6
20260505015055 23 198 11.3 24.1 0.00 0.00 0.00 80 1010.4
20260505014556 23 152 9.7 27.4 0.00 0.00 0.00 79 1010.5
20260505014056 23 169 14.5 27.4 0.00 0.00 0.00 79 1010.5
20260505013553 23 166 11.3 25.7 0.00 0.00 0.00 79 1010.5
20260505013059 23 181 8.0 32.2 0.00 0.00 0.00 78 1010.5
20260505012551 23 193 12.9 32.2 0.00 0.00 0.00 78 1010.3
20260505012053 23 162 11.3 25.7 0.00 0.00 0.00 78 1010.3
20260505011556 23 164 12.9 29.0 0.00 0.00 0.00 77 1010.2
20260505011053 24 182 12.9 30.6 0.00 0.00 0.00 77 1010.1
20260505010553 24 190 14.5 30.6 0.00 0.00 0.00 77 1010.1
20260505010056 24 177 12.9 29.0 0.00 0.00 0.00 76 1010.0
20260505005553 24 227 12.9 29.0 0.00 0.00 0.00 76 1010.0
20260505005053 24 190 16.1 30.6 0.00 0.00 0.00 76 1010.2
20260505004555 25 205 16.1 30.6 0.00 0.00 0.00 75 1010.4
20260505004055 25 167 14.5 25.7 0.00 0.00 0.00 75 1010.4
20260505003553 25 173 12.9 22.5 0.00 0.00 0.00 75 1010.5
20260505003056 25 193 9.7 25.7 0.00 0.00 0.00 74 1010.4
20260505002555 25 184 12.9 25.7 0.00 0.00 0.00 74 1010.5
20260505002056 25 188 9.7 25.7 0.00 0.00 0.00 74 1010.5
20260505001557 25 194 11.3 24.1 0.00 0.00 0.00 73 1010.4
20260505001053 25 196 14.5 24.1 0.00 0.00 0.00 73 1010.3
20260505000553 25 200 12.9 29.0 0.00 0.00 0.00 73 1010.2
20260505000107 25 186 12.9 29.0 0.00 0.00 0.00 73 1010.3
20260504235554 25 191 12.9 32.2 0.00 0.00 0.00 73 1010.3
20260504235053 25 200 17.7 32.2 0.00 0.00 0.00 73 1010.4
20260504234617 25 174 11.3 29.0 0.00 0.00 0.00 73 1010.5
20260504234053 25 188 16.1 27.4 0.00 0.00 0.00 72 1010.5
20260504233553 25 186 14.5 29.0 0.00 0.00 0.00 73 1010.6
20260504233057 25 197 12.9 32.2 0.00 0.00 0.00 72 1010.5
20260504232553 26 202 12.9 32.2 0.00 0.00 0.00 72 1010.7
20260504232054 26 234 14.5 27.4 0.00 0.00 0.00 72 1010.7
20260504231601 26 182 12.9 27.4 0.00 0.00 0.00 72 1010.8
20260504231054 26 163 12.9 25.7 0.00 0.00 0.00 71 1010.8
20260504230558 26 184 12.9 25.7 0.00 0.00 0.00 70 1010.8
20260504230059 26 206 12.9 24.1 0.00 0.00 0.00 71 1010.9
20260504225555 26 199 11.3 24.1 0.00 0.00 0.00 71 1011.1
20260504225054 26 171 11.3 25.7 0.00 0.00 0.00 70 1011.1
20260504224555 26 198 16.1 25.7 0.00 0.00 0.00 69 1011.1